カタリナ-ニート彗星

P/2005 JD108 ( Catalina-NEAT )

English version
Home page
Updated on February 11, 2007

---------------------------------------------------------------------

・ プロフィール

発見日 2005年5月12日、6月28日
発見光度 18.9等、18.4等
発見者 Catalina Sky Survey, Near-Earth-Asteroid Tracking Team

・ 写真集

・ 軌道要素

Epoch 2005 Aug. 18.0 TT = JDT 2453600.5
T 2005 Aug. 10.48278 TT                                 MPC
q   4.0288444            (2000.0)            P               Q
n   0.06029378     Peri.   90.32384     +0.70140710     +0.71164273
a   6.4410163      Node   224.30795     -0.67456725     +0.64469765
e   0.3745017      Incl.    3.27531     -0.23018930     +0.27915867
P  16.35

・ 星図

・ 光度変化

        m1 = 9.5 + 5 logΔ + 10.0 log r

---------------------------------------------------------------------

軌道要素はM.P.E.C. 2006-S42に掲載されたものです。
星図は StellaNavigator Ver.2.0 for Windows (アストロアーツ 編著 / アスキー出版局刊) で作成したものです。
光度グラフはComet for Windowsで作成したものです。

---------------------------------------------------------------------

Copyright(C) Seiichi Yoshida (comet@aerith.net). All rights reserved.